Regional Weather Roundup
Issued by NWS

Home | Current Version | Previous Version | Text Only | Print | Product List | Glossary On
Versions: 1 2 3 4 5 6 7 8 9 10 11 12 13 14 15 16 17 18 19 20 21 22 23 24 25 26 27 28 29 30 31 32 33 34 35 36 37 38 39 40 41 42 43 44 45 46 47 48 49 50
000
ASUS43 KTOP 021059
RWRKS

WEATHER ROUNDUP FOR KANSAS
NATIONAL WEATHER SERVICE GOODLAND KS
600 AM CDT MON MAY 02 2016

NOTE:  "FAIR" INDICATES FEW OR NO CLOUDS BELOW 12,000 FEET WITH NO
SIGNIFICANT WEATHER AND/OR OBSTRUCTIONS TO VISIBILITY.

KSZ001>006-013>018-027>032-041>047-021200-
NORTHWEST KANSAS

CITY           SKY/WX    TMP DP  RH WIND       PRES   REMARKS
GOODLAND       CLEAR     30  26  85 W8        30.22S
HAYS           PTCLDY    39  30  70 NW6       30.19S
HILL CITY      CLOUDY    42  39  89 W3        30.20S
RUSSELL        CLOUDY    44  41  89 NW9       30.17F
$$

KSZ061>065-074>080-084>089-021200-
SOUTHWEST KANSAS

CITY           SKY/WX    TMP DP  RH WIND       PRES   REMARKS
DODGE CITY     CLOUDY    36  34  92 NW10      30.20F WCI  28
ELKHART          N/A     35  30  82 W7          N/A
GARDEN CITY    CLEAR     34  32  92 NW9       30.21S
GREAT BEND     CLOUDY    45  36  70 NW7       30.19S
LIBERAL        CLEAR     37  32  81 NW9       30.22S
$$

KSZ066>073-081>083-090>101-021200-
SOUTHEAST KANSAS

CITY           SKY/WX    TMP DP  RH WIND       PRES   REMARKS
CHANUTE        CLOUDY    49  43  80 N7        30.11S
COFFEYVILLE    CLOUDY    51  44  77 N9        30.10F
HUTCHINSON     CLOUDY    47  44  90 NW7       30.16F
MEDICINE LODGE   N/A     46  42  86 N9        30.17F
NEWTON         CLOUDY    45  37  76 N8        30.16F
PARSONS        CLOUDY    50  45  83 N7        30.12S
WICHITA INTL   CLOUDY    48  43  82 NW10      30.15S
WICHITA JABRA  CLOUDY    46  43  89 NW9       30.14F
WINFIELD       CLOUDY    47  42  83 NW8       30.15F
$$

KSZ007>012-019>026-033>040-048>060-102>105-021200-
NORTHEAST KANSAS

CITY           SKY/WX    TMP DP  RH WIND       PRES   REMARKS
CONCORDIA      CLOUDY    46  43  89 W7        30.16S
EMPORIA        CLOUDY    47  43  86 NW8       30.12S
LAWRENCE       CLOUDY    48  44  86 N9        30.11F
MANHATTAN      CLOUDY    49  43  80 VRB3      30.14S
OLATHE IND     CLOUDY    47  45  93 NW9       30.10S
OLATHE EXE     CLOUDY    47  44  90 NW7       30.09F
SALINA         CLOUDY    48  44  86 NW7       30.16F
TOPEKA BILLARD CLOUDY    48  43  82 NW7       30.12S
TOPEKA FORBES  CLOUDY    49  43  80 N7        30.11S
$$




USA.gov is the U.S. government's official web portal to all federal, state and local government web resources and services.